Regional Weather Roundup
Issued by NWS Upton, NY

Current Version | Previous Version | Text Only | Print | Product List | Glossary Off
Versions: 1 2 3 4 5 6 7 8 9 10 11 12 13 14 15 16 17 18 19 20 21 22 23 24 25 26 27 28 29 30 31 32 33 34 35 36 37 38 39 40 41 42 43 44 45 46 47 48 49
000 ASUS41 KOKX 030604 RWROKX REGIONAL WEATHER ROUNDUP NATIONAL WEATHER SERVICE NEW YORK NY 200 AM EDT MON AUG 03 2015 NOTE: "FAIR" INDICATES FEW OR NO CLOUDS BELOW 12,000 FEET WITH NO SIGNIFICANT WEATHER AND/OR OBSTRUCTIONS TO VISIBILITY. NYZ071-072-176-178-NJZ106-104-030700- NEW YORK CITY METRO AREA CITY SKY/WX TMP DP RH WIND PRES REMARKS CENTRAL PARK CLEAR 78 57 48 SW5 29.89F LAGUARDIA APRT PTCLDY 79 57 46 SW12 29.85F KENNEDY INTL PTCLDY 75 61 61 SW10 29.87F NEWARK/LIBERTY PTCLDY 75 58 55 S9 29.85F BRNX BOT. GARD N/A 75 59 57 E6 29.86S TETERBORO CLEAR 75 57 53 S6 29.84F $$ NYZ177-179-078>081-030700- LONG ISLAND NEW YORK CITY SKY/WX TMP DP RH WIND PRES REMARKS FARMINGDALE CLEAR 76 63 64 SW6 29.87F ISLIP CLEAR 74 68 81 SW6 29.85F SHIRLEY CLEAR 74 70 87 S6 29.87F WESTHAMPTON CLEAR 75 71 87 SW7 29.89F MONTAUK POINT N/A 76 70 82 SW6 29.88F $$ NYZ052-065-067-030700- HUDSON VALLEY CITY SKY/WX TMP DP RH WIND PRES REMARKS WHITE PLAINS CLEAR 68 65 90 S5 29.86F NEWBURGH CLEAR 73 61 64 SW9 29.85F MONTGOMERY CLEAR 64 59 83 S8 29.84F POUGHKEEPSIE CLEAR 64 59 83 CALM 29.82F ALBANY MOCLDY 72 56 57 S8 29.79S $$ NJZ001-105-106-008-010-013-015-019>022-104-030700- NEW JERSEY CITY SKY/WX TMP DP RH WIND PRES REMARKS NEWARK/LIBERTY PTCLDY 75 58 55 S9 29.85F TETERBORO CLEAR 75 57 53 S6 29.84F CALDWELL CLEAR 71 57 61 W3 29.86F MORRISTOWN CLEAR 63 57 82 CALM 29.86F SOMERVILLE CLEAR 63 58 83 CALM 29.84F SUSSEX CLEAR 62 59 90 CALM 29.86S ANDOVER N/A 63 61 93 CALM 29.87F TRENTON CLEAR 71 61 70 S7 29.86F MILLVILLE CLEAR 67 64 90 CALM 29.89S ATLANTIC CITY CLEAR 71 67 87 SW5 29.89S WRIGHTSTOWN NOT AVBL TOMS RIVER N/A 66 61 82 CALM 29.89F BELMAR CLEAR 70 57 64 S5 29.88F $$ PAZ047>061-062-071-030700- EASTERN PENNSYLVANIA CITY SKY/WX TMP DP RH WIND PRES REMARKS PHILADELPHIA CLEAR 75 64 68 S7 29.88F ALLENTOWN CLEAR 65 60 84 CALM 29.86S SCRANTON PTCLDY 73 58 59 W3 29.84F $$ CTZ002-004>006-009-010-012-RIZ004-006-007-MAZ004-011-015-030700- SOUTHERN NEW ENGLAND IN CT CITY SKY/WX TMP DP RH WIND PRES REMARKS BRADLEY INTL CLEAR 69 64 84 S5 29.84F HARTFORD CLEAR 71 67 87 S3 29.84F DANBURY CLEAR 71 61 70 S5 29.87F WTRBRY/OXFORD CLEAR 70 61 73 CALM 29.89F BRIDGEPORT CLEAR 75 71 87 SW6 29.85F MERIDEN CLEAR 66 63 90 CALM 29.85F NEW HAVEN CLEAR 72 69 90 S3 29.86F CHESTER NOT AVBL GROTON CLEAR 69 66 90 E3 29.86F WILLIMANTIC CLEAR 65 62 90 CALM 29.87F IN RI CITY SKY/WX TMP DP RH WIND PRES REMARKS PROVIDENCE CLEAR 69 67 93 S3 29.87F BLOCK ISLAND N/A 73 70 88 SW10 29.88F WESTERLY CLEAR 67 65 93 CALM 29.88F IN MA CITY SKY/WX TMP DP RH WIND PRES REMARKS BOSTON NOT AVBL WORCESTER CLEAR 64 62 93 SW9 29.88F WESTFIELD CLEAR 65 59 81 CALM 29.84F PROVINCETOWN CLEAR 72 63 73 S8 29.88F NANTUCKET PTCLDY 70 67 90 S8 29.90S $$ ANZ330-335-338-340-345-350-353-355-030700- COASTAL MARINE OBSERVATIONS STATION/POSITION TIME SKY/WX TEMP WIND PRES VSBY WAVE AIR SEA DIR/SP/G HT/PER (UTC) (F) (DEG/KT/KT) (MB) (MI) (FT/S) NY HARB ENTRANCE 0450 77 77 230/ 14/ 16 1011.4 3/ 4 4S FIRE IS NOT AVBL 20S FIRE ISLAND 0450 77 76 220/ 12/ 14 1011.6 3/ 8 GREAT SOUTH BAY 0515 78 81 220/ 14/ 17 N/A 23SW MTP 0550 76 75 210/ 12/ 14 1011.2 3/11 HUDSON CANYON NOT AVBL KINGS POINT 0500 75 70 180/ 7/ 10 1010.7 EXECUTION ROCKS 0500 74 210/ 4/ 6 N/A CENTRAL LI SOUND NOT AVBL EASTERN LI SOUND 0500 71 69 280/ 4/ 8 N/A ROBBINS REEF 0500 78 230/ 12/ 15 1010.5 $$ >>>>>>>>>>>>>>>>>>>>>>>>>>>> KEY <<<<<<<<<<<<<<<<<<<<<<<<<<< > < > SKY/WX - SKY CONDITION/PRESENT WEATHER < > TMP - TEMPERATURE IN FAHRENHEIT < > DP - DEWPOINT IN FAHRENHEIT < > RH - RELATIVE HUMIDITY IN PERCENT < > WIND - DIRECTION AND SPEED IN MPH < > PRES - MEAN SEA LEVEL PRESSURE IN INCHES OF HG < > WCI - WIND CHILL INDEX < > VSB - VISIBILITY IN MILES < > HX - HEAT INDEX < > TC - TEMPERATURE IN CELSIUS < > VRB - VARIABLE WIND DIRECTION < > < >>>>>>>>>>>>>>>>>>>>>>>>>>>> KEY <<<<<<<<<<<<<<<<<<<<<<<<<<<

USA.gov is the U.S. government's official web portal to all federal, state and local government web resources and services.